Temp
68 67 64 65 53 49 44 51 64 65 64 71 71 70 64 61 61 54 65 69 69 70 73 74 74 75 75 75 75 74 75 75 76 75 76 75 75 75 75 75 75 76 76 75 75 74 73 73 73
67 69 65 58 48 43 44 54 59 61 69 70 67 62 61 57 64 63 64 69 71 72 73 73 73 74 75 74 74 74 75 75 76 76 76 76 76 75 75 75 75 75 75 74 74 73 73 72 72
69 69 58 52 47 46 45 57 58 64 66 69 63 64 62 61 63 64 68 70 71 71 73 73 72 74 75 75 74 74 75 75 75 76 75 75 75 75 75 75 74 74 74 74 74 73 72 72 72
65 63 57 48 46 55 53 58 63 65 68 66 64 58 62 69 67 69 70 71 70 70 72 70 72 74 74 74 74 74 74 75 75 75 75 74 74 74 75 74 75 74 75 74 74 73 72 71 71
64 56 47 45 49 56 58 62 63 64 63 63 64 59 59 67 70 70 69 70 68 69 70 71 71 73 74 74 74 74 74 74 75 75 74 73 73 73 74 73 73 73 73 72 73 72 71 70 70
55 54 43 43 49 57 59 63 64 64 65 63 62 59 60 66 67 69 70 68 70 69 70 70 68 70 72 73 73 73 73 74 74 74 73 72 73 73 73 72 73 72 72 72 72 71 70 70 70
52 47 44 45 50 55 61 66 61 64 63 63 66 58 58 61 67 68 69 68 69 70 69 69 68 69 68 69 70 71 72 72 73 73 72 71 71 71 71 71 72 72 72 71 71 70 70 70 70
56 51 45 48 50 53 63 62 65 62 64 66 68 56 56 63 66 68 68 67 67 68 68 67 67 67 68 69 66 68 69 70 70 70 68 67 67 68 68 67 70 71 71 70 70 69 70 70 68
60 48 43 49 51 56 61 58 63 66 63 62 63 63 66 68 66 66 63 63 65 66 66 67 67 67 67 67 66 66 66 67 67 66 64 63 63 64 64 64 67 69 69 70 69 69 68 66 65
50 45 48 56 56 55 60 57 59 60 61 60 59 63 68 66 65 66 64 62 63 63 65 66 66 67 69 69 67 69 69 69 67 63 63 63 62 62 64 61 64 66 66 68 69 67 65 62 59
50 45 53 57 59 59 59 58 60 56 56 61 60 61 64 64 63 66 66 64 64 65 66 67 67 67 69 68 68 67 68 67 66 64 62 61 62 59 60 59 61 61 61 62 62 60 59 58 58
43 51 51 53 54 54 53 58 58 59 60 66 64 64 63 63 64 65 65 65 62 64 66 67 67 68 69 69 67 67 66 66 65 64 61 59 58 57 58 58 59 59 61 59 58 57 57 57 57
43 46 50 52 53 53 56 53 54 56 60 65 65 63 62 63 65 67 68 67 64 63 64 65 67 69 69 66 67 67 67 65 65 64 62 62 59 59 59 59 60 61 60 59 56 57 56 55 54
45 46 47 50 51 51 51 53 53 54 60 61 63 60 60 63 64 65 63 65 64 65 64 65 66 67 68 67 66 67 67 66 66 65 63 62 62 61 60 60 62 60 60 58 57 56 53 51 52
46 39 43 44 48 48 51 47 50 56 59 58 60 61 60 61 64 63 65 66 67 67 65 65 66 66 66 67 67 67 67 67 66 66 65 63 64 61 61 60 60 61 60 59 57 54 52 50 52
39 38 31 44 46 49 46 36 50 54 51 52 55 59 61 61 62 64 66 67 68 68 64 65 68 66 65 65 66 66 67 67 67 66 66 64 64 63 62 61 61 61 60 59 55 52 49 47 48
34 28 31 36 46 44 42 37 46 54 51 50 51 53 55 59 62 63 66 67 66 69 68 64 66 66 66 66 67 67 68 66 66 66 64 61 61 63 61 61 60 60 58 56 54 49 49 46 46
28 29 32 31 40 43 39 39 46 48 50 50 51 52 53 56 58 62 65 66 66 68 69 66 66 66 66 65 64 65 65 62 62 61 59 60 58 60 61 59 58 57 56 52 50 48 47 49 50
34 31 29 35 42 37 37 39 43 47 48 48 50 51 52 54 59 61 64 65 65 66 67 66 66 66 66 63 60 59 61 54 52 53 56 57 57 56 58 57 56 54 54 50 50 49 48 47 50
35 31 30 36 41 39 37 36 42 45 46 48 49 50 52 53 55 60 62 63 63 64 66 66 66 65 67 65 63 60 54 49 49 50 50 52 52 54 54 54 52 51 50 49 49 50 46 47 48
33 31 31 31 38 38 34 31 34 43 44 46 48 50 51 52 53 56 59 60 63 63 64 66 66 65 67 66 58 53 52 50 48 47 47 47 49 49 50 49 49 46 47 47 48 48 48 45 45
29 38 37 34 31 22 35 21 33 38 40 43 45 45 47 49 52 55 56 60 60 63 63 66 66 65 66 64 59 56 57 52 48 47 45 44 47 47 47 46 45 45 45 46 46 48 48 47 41
33 39 35 34 30 28 28 25 29 37 37 39 40 44 44 47 49 49 52 60 62 62 61 62 64 65 66 61 59 58 59 53 47 44 41 42 43 44 45 45 44 44 44 43 44 43 42 42 40
40 35 34 30 30 20 26 24 28 31 35 37 42 43 45 45 46 48 50 54 61 61 60 61 61 62 64 61 59 60 54 47 43 40 39 39 40 41 42 43 42 42 41 40 40 39 39 37 36
35 26 10 10 9 12 30 26 31 35 39 40 40 42 44 44 44 45 45 47 50 57 58 59 60 60 62 59 58 59 50 48 45 42 39 38 38 38 39 40 39 39 39 38 37 36 35 35 34
30 26 21 15 10 19 33 21 31 40 41 43 44 43 44 43 44 44 44 44 47 49 57 58 59 60 58 57 56 53 50 48 45 43 41 39 38 38 39 38 38 37 37 36 35 34 33 33 32
25 22 35 25 21 20 23 31 39 42 41 42 43 41 40 41 42 42 43 43 45 46 49 57 58 59 56 55 55 50 49 45 42 41 40 38 38 38 37 37 35 35 35 34 34 33 31 31 31
33 38 23 22 17 14 21 23 27 31 34 38 39 38 40 41 41 41 41 43 44 45 47 54 58 58 55 55 51 48 45 43 41 39 37 36 36 36 35 34 33 33 33 33 32 30 30 31 32
24 23 28 28 26 20 17 23 35 34 37 36 37 38 39 40 40 40 39 42 44 45 45 51 58 56 52 49 47 43 41 40 39 37 35 35 34 34 33 33 32 32 31 31 30 30 32 32 31
34 30 28 21 21 24 23 23 40 40 39 38 36 38 38 38 38 39 41 43 44 47 50 51 49 48 45 43 40 38 37 37 34 33 33 34 33 33 32 32 31 31 30 30 32 32 32 31 30
MSLP
1013.60 1012.98 1013.00 1013.03 1013.97 1013.93 1013.31 1012.09 1010.56 1009.67 1009.36 1008.52 1008.33 1008.26 1009.22 1009.94 1010.57 1011.80 1011.22 1011.55 1011.72 1012.56 1013.18 1013.69 1014.16 1014.67 1015.10 1015.53 1015.91 1016.29 1016.46 1016.71 1016.73 1017.01 1017.05 1017.17 1017.28 1017.46 1017.64 1017.66 1017.83 1017.89 1018.05 1018.23 1018.45 1018.60 1018.72 1018.79 1018.83
1013.44 1012.99 1013.04 1013.45 1014.06 1013.85 1012.96 1011.59 1010.30 1009.43 1008.70 1008.45 1008.86 1008.92 1009.55 1010.28 1010.46 1011.12 1011.60 1011.75 1011.73 1012.34 1013.10 1013.73 1014.13 1014.54 1014.97 1015.45 1015.93 1016.36 1016.50 1016.74 1016.92 1017.00 1017.21 1017.35 1017.46 1017.61 1017.66 1017.85 1017.94 1018.17 1018.33 1018.53 1018.66 1018.79 1018.85 1018.91 1018.95
1013.13 1013.31 1013.96 1013.98 1013.74 1013.05 1012.37 1010.88 1009.70 1008.93 1008.34 1008.35 1008.70 1009.19 1009.66 1009.95 1010.33 1010.66 1010.65 1011.42 1011.84 1012.59 1013.03 1013.61 1014.09 1014.57 1014.98 1015.35 1015.84 1016.25 1016.49 1016.75 1016.98 1017.15 1017.37 1017.59 1017.73 1017.77 1017.86 1018.05 1018.29 1018.43 1018.53 1018.64 1018.77 1018.93 1019.02 1019.08 1019.10
1013.50 1013.67 1014.32 1014.10 1013.36 1011.93 1011.04 1010.09 1009.39 1008.85 1008.14 1008.18 1008.73 1009.63 1009.84 1009.62 1009.76 1010.01 1010.79 1011.28 1011.96 1012.59 1013.17 1013.67 1014.02 1014.48 1014.93 1015.35 1015.76 1016.20 1016.48 1016.73 1016.96 1017.25 1017.43 1017.68 1017.87 1018.03 1018.16 1018.33 1018.39 1018.54 1018.57 1018.75 1018.94 1019.10 1019.22 1019.25 1019.25
1013.68 1014.26 1014.47 1014.00 1012.83 1011.56 1010.47 1009.90 1009.36 1008.89 1008.35 1008.21 1008.72 1009.52 1009.99 1009.89 1009.76 1010.14 1010.57 1011.26 1011.76 1012.61 1013.01 1013.63 1013.99 1014.42 1014.86 1015.26 1015.68 1016.02 1016.39 1016.70 1016.94 1017.23 1017.51 1017.76 1018.02 1018.22 1018.39 1018.54 1018.63 1018.79 1018.94 1019.04 1019.11 1019.24 1019.30 1019.34 1019.36
1014.42 1014.52 1014.69 1013.89 1012.64 1011.38 1010.37 1009.60 1009.26 1008.74 1008.21 1008.24 1008.79 1009.59 1010.09 1009.89 1010.23 1010.37 1010.73 1011.26 1011.61 1012.18 1012.87 1013.38 1013.94 1014.35 1014.72 1015.21 1015.59 1016.02 1016.29 1016.61 1016.91 1017.22 1017.54 1017.78 1018.08 1018.25 1018.46 1018.64 1018.76 1018.86 1019.03 1019.17 1019.27 1019.36 1019.37 1019.42 1019.49
1014.67 1014.97 1014.27 1013.46 1012.53 1011.27 1010.09 1009.13 1008.98 1008.22 1008.02 1008.01 1008.36 1009.64 1010.33 1010.33 1010.26 1010.55 1010.83 1011.33 1011.82 1012.09 1012.66 1013.26 1013.71 1014.19 1014.66 1015.12 1015.53 1015.94 1016.25 1016.48 1016.82 1017.18 1017.59 1017.85 1018.21 1018.46 1018.62 1018.84 1018.90 1019.00 1019.19 1019.35 1019.46 1019.49 1019.54 1019.53 1019.62
1014.43 1014.58 1014.15 1013.27 1012.49 1010.75 1009.81 1009.36 1008.74 1008.41 1007.85 1007.46 1007.85 1009.13 1010.03 1009.93 1010.30 1010.56 1011.30 1011.51 1011.93 1012.37 1012.80 1013.12 1013.62 1013.99 1014.48 1014.93 1015.39 1015.85 1016.22 1016.48 1016.72 1017.11 1017.56 1017.96 1018.17 1018.47 1018.75 1019.02 1019.10 1019.15 1019.33 1019.49 1019.58 1019.63 1019.72 1019.86 1019.93
1014.22 1014.46 1013.67 1012.73 1012.05 1010.62 1010.02 1009.89 1008.99 1008.26 1008.23 1008.01 1008.21 1008.46 1008.46 1009.07 1010.26 1010.80 1011.51 1011.95 1012.18 1012.39 1012.68 1013.06 1013.45 1013.83 1014.20 1014.76 1015.27 1015.70 1016.12 1016.57 1016.83 1017.18 1017.65 1018.10 1018.36 1018.51 1018.77 1018.97 1019.11 1019.26 1019.34 1019.57 1019.70 1019.74 1019.88 1020.23 1020.45
1014.77 1014.13 1013.17 1012.41 1011.80 1011.23 1010.61 1010.36 1009.85 1009.29 1008.76 1008.55 1008.82 1008.82 1008.64 1009.23 1009.93 1010.40 1010.91 1011.38 1011.72 1012.10 1012.43 1012.70 1013.25 1013.60 1013.99 1014.43 1015.15 1015.51 1016.07 1016.57 1016.93 1017.28 1017.77 1018.13 1018.42 1018.68 1018.85 1019.09 1019.16 1019.26 1019.33 1019.48 1019.66 1019.80 1019.99 1020.49 1020.90
1014.86 1014.32 1013.56 1012.89 1012.42 1012.00 1011.34 1010.53 1010.00 1009.71 1009.34 1009.07 1009.00 1008.84 1009.00 1009.29 1009.88 1010.14 1010.50 1010.81 1010.72 1011.40 1011.95 1012.26 1012.65 1013.32 1013.74 1014.09 1014.66 1015.31 1015.90 1016.42 1016.93 1017.27 1017.66 1018.16 1018.51 1018.66 1018.90 1019.19 1019.30 1019.48 1019.66 1019.77 1020.01 1020.21 1020.50 1020.82 1021.14
1016.08 1014.93 1014.80 1014.09 1013.52 1012.92 1012.18 1011.51 1010.36 1009.90 1009.40 1009.08 1009.17 1008.96 1008.75 1009.21 1009.28 1009.44 1009.82 1010.34 1010.85 1011.12 1011.43 1011.81 1012.20 1012.60 1013.19 1013.82 1014.18 1014.83 1015.39 1016.13 1016.58 1017.03 1017.53 1018.03 1018.57 1018.84 1019.01 1019.16 1019.35 1019.58 1019.76 1020.04 1020.32 1020.58 1020.87 1021.23 1021.52
1016.50 1016.15 1015.32 1014.75 1014.08 1013.28 1012.48 1011.74 1011.13 1009.71 1009.70 1009.16 1009.17 1009.15 1009.16 1008.97 1008.91 1009.04 1009.20 1009.88 1010.59 1011.14 1011.40 1011.61 1011.94 1012.32 1012.65 1013.29 1014.00 1014.40 1014.64 1015.23 1015.93 1016.64 1017.03 1017.43 1018.05 1018.45 1018.70 1019.00 1019.18 1019.45 1019.69 1020.07 1020.55 1020.79 1021.30 1021.73 1022.01
1017.29 1016.59 1015.87 1014.93 1014.09 1013.20 1012.49 1011.27 1011.12 1009.81 1009.49 1009.26 1009.40 1009.38 1009.28 1008.98 1008.69 1008.88 1009.32 1009.62 1009.93 1010.36 1010.78 1011.37 1011.67 1012.10 1012.44 1012.90 1013.42 1014.17 1014.71 1015.14 1015.40 1015.92 1016.66 1017.09 1017.51 1017.96 1018.36 1018.68 1018.86 1019.16 1019.42 1019.95 1020.41 1020.92 1021.54 1022.17 1022.46
1017.59 1017.14 1016.00 1015.16 1014.76 1013.83 1012.80 1011.04 1010.17 1010.11 1009.85 1009.26 1009.10 1009.22 1009.06 1008.87 1008.56 1008.68 1008.35 1008.61 1009.18 1009.70 1010.26 1010.62 1011.26 1011.89 1012.26 1012.54 1012.96 1013.53 1014.25 1014.73 1015.24 1015.38 1015.71 1016.42 1016.70 1017.29 1017.81 1018.34 1018.81 1019.01 1019.43 1019.96 1020.62 1021.35 1021.90 1022.48 1022.91
1018.25 1017.77 1017.38 1015.72 1015.23 1014.31 1014.11 1011.66 1011.30 1010.20 1010.49 1010.08 1009.37 1009.00 1008.90 1008.42 1008.15 1008.11 1008.00 1008.01 1008.33 1008.99 1009.80 1010.38 1010.65 1011.20 1011.73 1012.11 1012.61 1013.12 1013.59 1014.01 1014.73 1015.14 1015.38 1015.94 1016.19 1016.61 1017.15 1017.79 1018.33 1018.82 1019.39 1019.94 1020.70 1021.51 1022.39 1022.89 1023.31
1019.43 1019.31 1018.48 1017.12 1015.81 1015.25 1014.74 1012.65 1012.14 1011.15 1010.64 1010.20 1009.64 1009.04 1008.91 1008.72 1008.12 1007.62 1007.43 1007.58 1007.81 1008.00 1008.57 1009.65 1010.18 1010.71 1011.23 1011.81 1012.26 1012.70 1013.24 1013.47 1014.15 1014.70 1015.07 1015.53 1015.92 1016.41 1017.04 1017.51 1018.10 1018.64 1019.36 1019.97 1020.70 1021.82 1022.22 1023.24 1023.71
1020.35 1019.85 1018.89 1018.00 1016.41 1015.38 1014.65 1012.40 1012.24 1011.74 1010.85 1009.90 1009.28 1008.87 1008.43 1008.03 1007.93 1007.51 1007.11 1006.91 1007.05 1007.36 1007.69 1008.42 1009.28 1010.14 1010.90 1011.42 1012.33 1012.58 1013.21 1013.70 1014.04 1014.40 1014.96 1015.35 1015.87 1016.26 1016.86 1017.39 1017.98 1018.64 1019.25 1020.23 1021.05 1021.81 1022.78 1023.17 1023.61
1020.35 1019.92 1019.15 1017.85 1016.61 1015.88 1014.86 1012.66 1012.10 1011.31 1010.52 1009.79 1009.12 1008.61 1007.82 1007.58 1006.94 1006.60 1006.58 1006.54 1006.66 1006.51 1007.31 1008.00 1008.65 1009.26 1010.16 1011.02 1011.84 1012.67 1013.30 1014.05 1014.53 1014.79 1015.00 1015.31 1015.95 1016.26 1016.82 1017.27 1018.12 1018.86 1019.24 1019.99 1020.94 1021.89 1022.62 1023.53 1023.79
1020.00 1019.76 1018.76 1017.53 1016.63 1016.13 1014.47 1012.77 1011.65 1010.54 1009.65 1009.22 1008.70 1008.20 1007.81 1007.26 1006.80 1006.29 1006.11 1005.97 1006.16 1006.25 1006.20 1006.96 1007.71 1008.45 1009.22 1010.05 1010.95 1011.91 1013.18 1014.36 1014.76 1015.24 1015.58 1015.72 1016.05 1016.38 1016.91 1017.60 1018.48 1019.18 1019.74 1020.43 1020.97 1021.46 1022.50 1023.34 1023.69
1019.52 1019.47 1018.82 1017.97 1016.75 1015.82 1014.73 1012.69 1011.77 1009.66 1009.33 1008.75 1008.31 1007.66 1007.26 1006.92 1006.55 1006.04 1005.74 1005.27 1005.39 1005.60 1005.81 1006.18 1006.76 1007.48 1008.22 1009.33 1010.95 1012.32 1013.33 1014.62 1015.38 1015.81 1016.22 1016.54 1016.48 1016.79 1017.36 1018.05 1018.62 1019.55 1019.93 1020.51 1020.96 1021.54 1021.92 1022.80 1023.92
1019.67 1018.95 1018.52 1017.84 1017.61 1016.89 1015.90 1014.40 1011.68 1010.12 1009.62 1009.27 1008.87 1008.37 1007.70 1006.97 1006.29 1005.81 1005.58 1005.11 1004.92 1005.00 1005.37 1005.21 1005.78 1006.72 1007.61 1008.57 1009.86 1011.00 1012.33 1013.77 1014.84 1015.71 1016.50 1017.08 1017.23 1017.45 1018.10 1018.53 1019.12 1019.82 1020.43 1020.90 1021.24 1021.57 1021.99 1022.50 1023.87
1019.55 1018.77 1018.40 1017.94 1017.64 1017.54 1015.71 1015.81 1011.52 1010.90 1010.07 1009.80 1009.43 1009.04 1008.51 1008.03 1007.41 1006.76 1006.17 1004.74 1004.17 1004.24 1004.80 1005.34 1005.45 1005.93 1006.82 1008.07 1008.96 1010.24 1011.55 1013.11 1014.50 1015.97 1016.71 1017.96 1017.89 1018.23 1019.09 1019.02 1019.62 1020.28 1020.92 1021.41 1021.73 1022.24 1022.79 1023.19 1024.10
1019.35 1019.10 1018.08 1017.83 1017.91 1017.73 1015.97 1015.66 1011.82 1011.09 1010.63 1010.09 1009.61 1009.29 1008.96 1008.26 1007.75 1007.22 1006.34 1005.22 1003.94 1003.61 1004.12 1004.90 1005.40 1005.73 1006.36 1007.59 1008.59 1009.38 1010.92 1012.94 1014.61 1016.07 1016.98 1018.26 1018.66 1019.13 1019.71 1019.73 1020.35 1021.00 1021.58 1021.95 1022.54 1023.12 1023.71 1024.30 1024.92
1019.92 1020.06 1019.64 1019.40 1018.70 1017.54 1015.68 1014.98 1011.75 1010.85 1010.45 1010.40 1010.02 1009.37 1008.94 1008.72 1008.06 1007.66 1007.17 1006.18 1005.11 1004.19 1003.85 1004.17 1004.86 1005.06 1006.03 1007.07 1008.13 1008.95 1010.43 1011.71 1013.34 1014.94 1016.49 1017.92 1018.72 1019.72 1020.31 1020.33 1021.04 1021.66 1022.47 1022.62 1023.03 1023.69 1024.62 1025.23 1025.77
1020.62 1020.92 1021.12 1020.29 1019.16 1016.96 1015.20 1013.84 1011.18 1010.62 1010.48 1010.48 1010.30 1009.95 1009.22 1008.25 1008.23 1007.86 1007.62 1006.84 1005.68 1004.91 1004.34 1003.87 1004.12 1004.92 1005.56 1006.72 1007.81 1009.06 1010.30 1011.58 1013.12 1014.43 1015.93 1017.40 1018.41 1019.81 1020.75 1021.16 1021.85 1022.36 1023.12 1023.39 1023.97 1024.52 1025.24 1026.02 1026.58
1020.72 1020.86 1020.47 1019.76 1018.61 1017.63 1014.84 1012.75 1010.90 1010.45 1010.18 1009.84 1009.45 1009.40 1009.07 1008.60 1008.09 1007.80 1007.37 1006.97 1006.08 1005.22 1004.82 1004.13 1004.34 1004.59 1005.34 1006.10 1007.57 1009.00 1010.32 1011.49 1013.08 1014.68 1015.97 1017.40 1018.72 1019.81 1020.99 1021.87 1022.65 1023.36 1024.05 1024.53 1024.54 1025.16 1026.07 1026.71 1027.17
1020.67 1020.63 1020.58 1020.26 1019.33 1017.36 1014.71 1013.26 1011.57 1011.16 1011.06 1010.93 1010.52 1010.13 1009.39 1008.81 1008.25 1007.56 1007.14 1006.49 1005.85 1005.26 1004.71 1004.22 1003.93 1004.40 1005.38 1006.32 1007.48 1008.85 1010.35 1011.80 1013.15 1014.64 1015.94 1017.46 1018.83 1020.02 1021.75 1022.55 1023.40 1024.17 1024.83 1025.23 1025.83 1026.15 1027.11 1027.32 1027.83
1021.33 1020.94 1021.12 1020.91 1019.76 1017.86 1015.61 1012.94 1011.70 1011.63 1011.18 1010.89 1010.77 1010.34 1009.51 1008.73 1008.15 1007.65 1006.85 1006.18 1005.40 1004.52 1004.07 1003.78 1003.38 1004.26 1005.63 1006.97 1008.34 1009.69 1011.19 1012.45 1013.71 1014.97 1016.60 1017.86 1019.20 1020.56 1022.22 1023.12 1023.97 1024.44 1025.08 1025.85 1026.85 1027.29 1027.44 1028.07 1028.39
1021.38 1021.18 1021.57 1020.97 1019.65 1018.47 1016.82 1013.05 1011.60 1011.51 1011.56 1011.56 1011.12 1010.48 1009.89 1008.93 1008.05 1007.40 1006.69 1005.86 1004.94 1003.53 1002.91 1002.99 1003.46 1004.66 1006.25 1007.67 1009.05 1010.66 1012.05 1013.49 1014.37 1015.54 1016.78 1018.65 1019.88 1021.18 1022.50 1023.49 1024.52 1025.35 1025.77 1026.81 1027.15 1027.48 1028.18 1028.39 1028.68
Wind_Speed
13 10 1 3 3 4 3 6 3 4 5 5 5 5 7 3 4 5 3 6 14 15 15 16 20 20 20 18 17 17 16 17 16 16 17 16 16 15 16 15 14 15 14 14 14 13 13 12 11
9 6 4 2 4 2 5 5 4 3 3 1 3 3 3 2 2 7 9 8 17 16 14 14 18 21 19 19 17 16 15 16 17 16 16 15 15 15 14 15 12 14 13 13 13 13 12 10 9
5 2 3 3 4 6 5 5 2 3 2 2 2 5 4 6 2 10 6 15 16 14 14 13 17 20 19 19 18 17 16 15 16 16 15 15 14 12 15 14 13 14 14 14 13 12 11 9 9
3 4 3 2 7 8 8 6 4 5 2 1 4 3 1 5 9 8 15 17 16 14 12 13 18 21 20 19 19 18 16 16 16 16 14 14 14 13 13 14 14 14 14 13 13 11 10 8 8
3 2 1 4 7 6 5 4 4 5 3 2 3 5 4 4 4 17 17 15 17 13 12 13 14 20 19 19 18 19 17 16 16 15 15 15 14 14 15 13 13 13 12 12 11 10 8 7 8
2 2 1 6 7 7 7 6 4 6 5 3 4 7 5 2 8 14 15 14 15 15 14 12 12 16 19 19 19 18 18 17 18 16 16 16 14 15 13 13 13 12 11 11 9 8 8 7 8
3 3 5 5 5 5 6 4 3 9 6 6 8 7 0 2 6 9 13 11 12 13 13 11 11 12 13 15 16 17 17 17 16 16 15 15 13 13 12 11 12 12 10 9 9 8 7 8 11
2 4 3 4 8 10 7 4 4 3 7 0 7 6 5 8 9 9 10 11 11 11 12 12 11 9 11 11 14 14 14 14 14 15 13 12 12 11 10 8 9 11 10 9 9 7 7 11 15
2 3 5 7 8 9 6 3 6 3 4 1 1 6 4 14 9 8 8 7 9 10 12 11 12 11 9 10 11 13 13 12 12 11 14 10 4 7 8 7 9 9 9 9 9 6 6 12 15
3 4 7 4 5 5 7 2 6 5 6 2 3 4 9 14 14 17 15 13 14 14 13 14 12 12 14 10 10 10 9 8 7 6 8 6 6 5 6 6 8 9 9 9 10 10 10 10 5
4 5 5 8 9 10 12 12 4 3 6 7 7 9 12 12 13 16 14 15 17 15 12 14 14 12 15 11 9 6 5 5 5 8 8 5 5 4 4 3 3 3 5 3 5 6 5 7 5
6 6 5 6 10 10 10 11 9 7 7 7 8 9 14 15 18 18 16 15 14 15 14 14 15 16 15 10 9 9 8 6 6 7 7 5 4 4 4 3 4 4 3 5 4 4 6 8 7
2 7 12 10 10 9 10 8 10 15 8 9 6 7 13 14 18 15 15 10 10 13 11 12 14 17 14 14 9 9 10 9 9 7 8 8 7 7 5 4 4 4 4 5 4 6 6 7 8
6 7 11 8 13 7 11 13 4 2 7 10 4 9 11 14 18 14 8 12 13 14 13 11 14 14 14 13 13 10 8 8 9 9 8 8 7 7 6 5 4 4 5 5 6 7 6 6 7
7 7 8 3 7 6 13 14 19 8 10 13 13 8 11 13 14 14 17 17 17 14 13 15 15 13 14 15 13 10 9 9 8 9 13 11 11 8 8 6 5 5 5 8 8 8 7 7 7
5 3 6 12 7 7 7 11 19 9 9 12 14 10 9 12 15 16 16 16 17 16 15 14 14 16 15 13 12 10 10 9 9 8 9 10 11 10 8 8 7 7 6 7 7 7 7 6 6
6 5 9 8 9 6 2 12 9 20 12 15 12 12 8 7 9 14 17 16 16 19 18 16 16 17 16 14 11 11 12 9 9 8 7 8 7 9 8 7 7 8 6 7 8 4 6 6 5
9 7 6 10 7 18 18 24 10 11 17 20 17 13 11 11 9 8 16 15 15 18 19 18 15 17 16 10 7 7 7 5 6 6 5 7 5 7 8 7 8 6 8 6 7 8 4 6 8
6 6 10 14 15 10 13 26 21 17 18 21 18 17 15 11 9 8 9 15 16 18 18 19 18 18 14 10 10 6 8 3 3 4 6 7 7 7 7 7 7 5 7 9 10 9 11 5 8
8 9 10 10 7 12 16 23 24 23 21 19 19 17 15 14 10 11 9 12 14 17 21 21 20 18 16 12 10 5 5 3 4 3 5 5 7 6 7 7 6 6 7 8 8 11 5 4 4
7 6 6 13 15 11 10 11 8 13 7 7 9 13 13 15 15 12 9 10 14 18 19 20 22 19 17 16 9 6 7 5 3 3 4 4 7 7 8 8 7 6 5 6 6 6 6 7 3
6 5 12 17 11 7 7 9 14 9 10 6 9 10 12 10 11 10 9 7 11 15 15 21 22 20 17 18 14 19 13 9 3 3 5 5 7 9 8 8 8 7 5 6 5 4 5 7 6
11 11 15 16 15 7 3 4 12 4 5 8 8 12 12 12 10 10 12 14 13 14 15 15 19 20 18 18 17 15 13 7 8 7 10 7 8 9 8 9 10 9 7 7 8 9 8 6 4
8 10 15 2 1 3 5 5 11 3 3 5 9 9 10 13 13 13 13 13 11 13 14 14 17 18 18 18 18 20 16 14 11 9 8 6 6 7 8 10 10 10 9 10 9 10 11 9 7
11 5 6 8 4 7 2 3 13 1 2 5 10 15 14 9 12 12 12 14 12 8 15 16 17 19 17 18 17 17 17 18 18 16 11 11 8 7 7 11 10 9 9 10 11 12 10 8 7
6 2 3 6 4 12 8 8 6 4 1 6 9 12 14 16 12 12 9 11 12 9 8 17 19 18 16 18 17 13 16 11 10 11 12 9 10 9 10 11 11 12 11 11 11 8 8 8 8
6 2 7 6 3 5 3 7 3 5 14 24 24 22 21 18 17 17 13 9 12 12 9 12 16 18 18 18 15 15 14 16 14 16 14 11 13 11 12 12 12 11 11 9 10 8 9 8 6
4 2 5 3 6 7 5 5 6 11 18 20 23 23 22 20 18 18 14 12 9 12 10 13 18 18 17 16 15 13 15 15 17 16 16 17 15 16 13 13 12 10 9 10 10 9 6 7 5
6 4 2 4 5 5 8 5 3 9 21 21 23 23 24 24 21 19 17 14 14 15 13 13 17 14 15 14 13 15 14 16 16 16 16 16 17 16 13 12 11 11 11 10 8 7 7 8 8
5 1 2 3 5 6 6 9 5 20 18 18 23 23 21 22 18 17 15 15 14 9 12 10 14 15 14 14 16 16 16 15 18 18 19 18 17 15 14 13 12 10 10 7 8 9 7 8 7
Wind_Direction
322 313 283 28 65 70 254 256 307 300 164 323 315 142 147 71 143 201 122 143 130 148 158 158 158 157 150 147 147 146 151 145 135 138 135 134 131 125 132 133 129 117 120 110 108 103 99 95 91
313 313 35 82 116 152 268 241 239 225 257 186 235 92 62 128 135 112 121 160 143 148 154 160 160 153 152 148 146 154 148 151 144 141 137 136 134 139 130 122 111 116 114 114 113 109 104 95 83
306 209 74 156 182 198 195 230 126 232 209 183 97 54 150 169 129 159 153 147 142 148 154 158 158 155 154 155 151 157 152 156 144 144 142 136 137 136 114 116 122 125 124 121 116 109 100 91 77
332 8 13 156 228 253 188 221 353 281 280 199 121 66 339 244 155 162 145 142 142 148 154 155 162 158 160 160 155 155 157 154 153 148 147 142 136 126 133 129 123 119 122 117 112 104 98 89 73
28 64 241 244 246 264 268 238 255 264 267 221 156 195 159 332 113 137 144 147 145 150 150 159 158 162 162 161 158 157 158 160 156 151 147 144 141 141 140 133 126 124 118 114 110 106 103 92 75
340 100 180 241 253 264 283 237 241 231 231 259 120 142 194 149 138 152 149 152 152 151 155 159 160 166 165 164 159 160 160 164 161 158 150 148 147 144 148 138 137 134 126 122 115 110 104 87 75
166 125 227 228 260 279 262 305 214 223 218 216 147 147 252 211 183 145 148 143 151 153 155 162 163 165 163 164 160 163 164 163 159 159 154 142 152 151 148 147 145 138 134 128 122 115 96 85 87
192 144 242 227 237 257 255 335 292 291 254 130 150 175 202 212 174 133 136 142 146 154 160 163 165 159 166 164 160 162 164 167 158 157 137 148 150 148 146 148 153 145 137 128 124 120 97 74 100
284 228 217 224 215 252 289 320 326 282 251 260 12 149 215 148 138 133 126 142 154 163 165 166 167 167 156 159 166 164 162 164 158 142 144 145 148 149 153 164 160 149 147 130 121 121 116 78 90
189 229 232 243 240 270 301 337 338 325 302 272 6 7 133 147 162 170 172 173 171 174 176 170 170 172 171 162 167 164 161 167 157 144 148 151 154 158 163 172 165 163 152 137 122 98 102 88 86
288 241 296 283 301 326 307 302 232 242 280 239 226 184 165 164 176 183 186 184 180 170 174 178 170 172 177 172 162 158 158 158 156 156 155 157 164 167 161 168 169 154 143 103 93 82 77 94 99
327 337 31 318 327 320 318 317 293 220 222 273 319 217 167 180 184 189 190 181 175 179 179 173 175 173 178 170 166 162 161 162 165 171 163 153 157 172 175 172 174 159 154 118 112 100 99 92 89
231 346 324 312 297 295 290 274 266 275 280 295 297 182 198 194 199 201 198 180 163 181 186 176 168 179 172 168 171 172 173 170 167 175 178 168 170 182 176 176 173 170 151 138 126 109 96 88 84
306 286 289 300 298 265 271 277 245 355 299 286 215 212 222 210 203 199 178 198 185 179 185 176 174 174 172 174 170 175 178 175 171 172 183 180 175 182 175 174 175 145 149 133 127 119 107 91 95
284 314 317 311 339 296 322 272 259 246 269 285 271 212 223 221 218 205 199 193 201 194 179 181 175 173 177 174 170 174 180 175 182 184 177 190 180 177 167 163 161 158 140 127 112 101 99 95 93
326 21 3 318 343 298 29 281 310 345 350 314 311 280 238 230 217 212 216 203 198 185 183 184 181 178 177 177 175 176 181 175 189 193 185 189 186 169 160 162 162 145 138 133 125 122 101 95 101
16 310 318 312 310 297 219 293 294 313 309 297 292 295 299 305 271 222 218 210 196 193 181 181 186 183 178 178 178 176 186 175 181 186 182 179 172 162 159 162 144 141 137 132 134 107 117 117 104
301 307 282 286 296 304 296 287 288 292 295 290 290 283 279 279 263 263 231 211 197 198 192 180 179 179 179 167 167 160 168 164 168 173 164 154 142 145 151 143 138 141 137 115 114 119 103 126 126
260 272 281 284 280 293 286 287 291 288 274 274 266 273 273 258 270 269 241 225 208 192 192 182 179 182 174 175 167 165 165 125 83 95 131 138 149 135 143 128 126 127 144 140 133 119 125 112 129
289 292 288 287 283 298 293 284 282 274 270 264 268 267 266 271 260 261 260 219 204 199 188 186 184 177 179 176 177 154 135 80 103 93 79 95 112 114 116 129 128 122 124 129 139 146 133 116 165
299 257 279 285 311 284 299 298 331 292 257 266 264 264 261 249 253 252 241 227 200 200 195 188 184 178 176 169 126 101 91 89 90 82 78 53 93 94 102 109 109 108 108 132 130 137 130 149 74
291 273 291 297 318 306 74 294 282 289 312 351 332 331 312 278 262 247 227 233 202 201 205 194 185 178 177 156 155 163 171 163 138 109 98 78 78 88 92 102 98 94 96 100 99 99 108 119 117
262 284 285 285 284 296 15 244 272 303 312 347 347 345 338 347 356 333 300 240 213 189 197 205 191 185 174 166 165 168 172 142 124 116 105 100 82 83 78 95 96 94 92 86 93 87 81 81 89
292 317 306 355 213 260 253 149 279 290 308 327 327 334 338 333 333 331 325 310 230 196 187 191 191 187 172 167 171 174 150 144 133 130 118 110 91 86 90 90 92 91 92 92 88 81 78 84 87
18 4 332 349 3 224 265 290 246 43 359 322 321 332 333 330 327 326 326 330 335 240 193 180 187 187 174 165 174 173 157 156 154 150 142 137 121 106 106 103 102 98 95 94 95 88 86 82 85
313 123 276 293 287 290 273 232 270 111 332 303 320 320 321 333 329 315 313 312 309 323 252 190 182 185 165 166 174 154 155 152 148 146 139 130 122 117 109 101 98 95 94 90 88 90 92 86 70
289 342 274 266 241 266 266 294 268 5 355 349 339 339 328 322 321 314 312 296 293 297 297 208 191 185 171 170 157 154 150 143 141 132 125 120 116 114 108 103 98 91 88 90 101 87 89 98 107
201 320 333 3 299 293 277 276 258 4 346 333 329 324 318 314 314 311 308 296 281 278 271 263 190 186 170 165 153 149 140 134 133 130 128 122 117 111 108 103 100 96 94 84 84 97 106 102 88
338 333 11 272 239 291 321 263 162 344 339 330 327 322 319 315 311 307 302 295 290 275 259 253 192 165 144 141 135 130 127 127 123 120 117 116 113 109 106 106 106 106 97 102 103 111 101 96 95
223 85 295 247 314 266 255 272 175 342 330 327 322 317 317 312 307 304 296 299 285 270 231 169 136 132 127 124 119 115 116 118 117 117 116 116 108 108 110 106 103 108 107 117 117 104 104 109 107